This demonstration page uses our WeatherBlox Daily Observations layout. Learn more.

40.92945, -100.16068

Hourly Observations for December 3, 2018

Temp ( °F °C ) Dew Point ( °F °C ) Humidity (%) Winds ( mph kmh ) Pressure ( in mb ) Visibility ( mi km ) Precip ( " mm )
12:15 am 00:15 Cloudy 24 -4.5 20 -6.5 86 86 N 15 24 30.21 1023 10 16.0934 0 0
12:35 am 00:35 Cloudy 24 -4.5 20 -6.6 85 85 N 14 22 30.27 1025 10 16.0934 0 0
12:55 am 00:55 Cloudy 24 -4.5 20 -6.5 86 86 N 13 20 30.27 1025 10 16.0934 0 0
1:15 am 01:15 Cloudy 24 -4.5 20 -6.5 86 86 N 10 17 30.27 1025 10 16.0934 0 0
1:35 am 01:35 Cloudy 24 -4.5 20 -6.5 86 86 N 13 20 30.27 1025 10 16.0934 0 0
1:55 am 01:55 Cloudy 24 -4.4 20 -6.5 85 85 N 13 20 30.27 1025 10 16.0934 0 0
2:15 am 02:15 Cloudy 24 -4.5 20 -6.5 86 86 N 13 20 30.27 1025 10 16.0934 0 0
2:35 am 02:35 Cloudy 24 -4.3 21 -6.3 86 86 N 10 17 30.3 1026 10 16.0934 0 0
2:55 am 02:55 Cloudy 24 -4.3 20 -6.5 85 85 N 14 22 30.3 1026 10 16.0934 0 0
3:15 am 03:15 Cloudy 24 -4.2 21 -6.3 85 85 N 13 20 30.3 1026 10 16.0934 0 0
3:35 am 03:35 Cloudy 25 -4.1 21 -6.2 86 86 N 12 19 30.3 1026 10 16.0934 0 0
3:55 am 03:55 Cloudy 25 -4 21 -6.3 84 84 NNW 13 20 30.27 1025 10 16.0934 0 0
4:15 am 04:15 Cloudy 25 -4 21 -6.3 84 84 N 13 20 30.27 1025 10 16.0934 0 0
4:35 am 04:35 Cloudy 25 -4.1 21 -6.2 86 86 N 13 20 30.33 1027 10 16.0934 0 0
4:55 am 04:55 Cloudy 24 -4.2 21 -6.1 87 87 N 15 24 30.33 1027 10 16.0934 0 0
5:15 am 05:15 Cloudy 24 -4.3 21 -6.3 86 86 N 13 20 30.33 1027 10 16.0934 0 0
5:35 am 05:35 Cloudy 24 -4.6 20 -6.7 85 85 N 14 22 30.33 1027 10 16.0934 0 0
5:55 am 05:55 Cloudy 24 -4.5 20 -6.5 86 86 N 14 22 30.33 1027 10 16.0934 0 0
6:15 am 06:15 Cloudy 24 -4.7 20 -6.5 87 87 N 12 19 30.33 1027 10 16.0934 0 0
6:35 am 06:35 Cloudy 23 -5 20 -6.5 89 89 N 8 13 30.36 1028 10 16.0934 0 0
6:55 am 06:55 Cloudy 23 -4.9 20 -6.4 89 89 N 9 15 30.36 1028 10 16.0934 0 0
7:15 am 07:15 Cloudy 23 -5.1 20 -6.8 88 88 NNE 8 13 30.36 1028 10 16.0934 0 0
7:35 am 07:35 Cloudy 23 -5.2 20 -6.9 88 88 NNE 7 11 30.36 1028 10 16.0934 0 0
7:55 am 07:55 Cloudy 23 -5.1 20 -6.6 89 89 N 10 17 30.36 1028 10 16.0934 0 0
8:15 am 08:15 Cloudy 23 -5.2 19 -7 87 87 N 14 22 30.39 1029 10 16.0934 0 0
8:35 am 08:35 Cloudy 22 -5.6 19 -7.5 87 87 NNE 13 20 30.39 1029 10 16.0934 0 0
8:55 am 08:55 Cloudy 22 -5.6 19 -7.5 87 87 N 10 17 30.39 1029 10 16.0934 0 0
9:15 am 09:15 Cloudy 22 -5.6 19 -7.5 87 87 NNE 10 17 30.42 1030 10 16.0934 0 0
9:35 am 09:35 Cloudy 21 -6 19 -7.5 89 89 NNE 8 13 30.45 1031 10 16.0934 0 0
9:55 am 09:55 Cloudy 22 -5.8 18 -7.6 87 87 N 9 15 30.45 1031 10 16.0934 0 0
10:15 am 10:15 Cloudy 22 -5.8 19 -7.5 88 88 NNE 10 17 30.45 1031 10 16.0934 0 0
10:35 am 10:35 Cloudy 21 -6 18 -7.8 87 87 NNE 12 19 30.45 1031 10 16.0934 0 0
10:55 am 10:55 Cloudy 21 -6 18 -7.8 87 87 NNE 10 17 30.45 1031 10 16.0934 0 0
11:15 am 11:15 Cloudy 22 -5.8 18 -7.7 87 87 N 10 17 30.45 1031 10 16.0934 0 0
11:35 am 11:35 Cloudy 22 -5.8 17 -8.1 84 84 N 15 24 30.48 1032 10 16.0934 0 0
11:55 am 11:55 Cloudy 22 -5.6 17 -8.5 80 80 NNW 12 19 30.42 1030 10 16.0934 0 0
12:15 pm 12:15 Cloudy 22 -5.6 17 -8.1 83 83 NNW 9 15 30.42 1030 10 16.0934 0 0
12:35 pm 12:35 Cloudy 23 -5.2 18 -7.9 82 82 NW 8 13 30.42 1030 10 16.0934 0 0
12:55 pm 12:55 Cloudy 23 -5 18 -7.6 82 82 NW 8 13 30.42 1030 10 16.0934 0 0
1:15 pm 13:15 Cloudy 23 -4.8 19 -7.5 82 82 NW 9 15 30.42 1030 10 16.0934 0 0
1:35 pm 13:35 Cloudy 24 -4.7 19 -7.3 82 82 NNW 8 13 30.42 1030 10 16.0934 0 0
1:55 pm 13:55 Cloudy 24 -4.6 19 -7.2 82 82 N 8 13 30.39 1029 10 16.0934 0 0
2:15 pm 14:15 Cloudy 24 -4.5 19 -7.2 82 82 N 8 13 30.39 1029 10 16.0934 0 0
2:35 pm 14:35 Cloudy 24 -4.5 19 -7.2 82 82 N 7 11 30.39 1029 10 16.0934 0 0
2:55 pm 14:55 Cloudy 24 -4.7 19 -7.5 81 81 N 8 13 30.39 1029 10 16.0934 0 0
3:15 pm 15:15 Cloudy 24 -4.5 19 -7.3 81 81 N 5 7 30.39 1029 10 16.0934 0 0
3:35 pm 15:35 Cloudy 24 -4.3 19 -7.2 80 80 N 5 7 30.39 1029 10 16.0934 0 0
3:55 pm 15:55 Cloudy 24 -4.5 19 -7.2 82 82 NNE 5 7 30.39 1029 10 16.0934 0 0
4:15 pm 16:15 Cloudy 24 -4.4 19 -7 82 82 N 3 6 30.39 1029 10 16.0934 0 0
4:35 pm 16:35 Cloudy 24 -4.4 19 -7 82 82 N 6 9 30.42 1030 10 16.0934 0 0
4:55 pm 16:55 Cloudy 24 -4.5 19 -7 83 83 NNE 7 11 30.42 1030 10 16.0934 0 0
5:15 pm 17:15 Cloudy 24 -4.5 19 -7 83 83 N 5 7 30.42 1030 10 16.0934 0 0
5:35 pm 17:35 Cloudy 24 -4.5 20 -6.8 84 84 N 10 17 30.42 1030 10 16.0934 0 0
5:55 pm 17:55 Cloudy 24 -4.2 20 -6.9 82 82 NNW 8 13 30.42 1030 10 16.0934 0 0
6:15 pm 18:15 Cloudy 25 -4.1 19 -7.1 80 80 N 9 15 30.42 1030 10 16.0934 0 0
6:35 pm 18:35 Cloudy 25 -4.1 19 -7 80 80 N 12 19 30.42 1030 10 16.0934 0 0
6:55 pm 18:55 Cloudy 25 -4 19 -7 80 80 NNW 10 17 30.42 1030 10 16.0934 0 0
7:15 pm 19:15 Cloudy 25 -4.1 19 -7 80 80 NNW 8 13 30.42 1030 10 16.0934 0 0
7:35 pm 19:35 Cloudy 25 -4 20 -6.8 81 81 NNW 6 9 30.42 1030 10 16.0934 0 0
7:55 pm 19:55 Cloudy 25 -4 20 -6.8 81 81 N 7 11 30.42 1030 10 16.0934 0 0
8:15 pm 20:15 Cloudy 25 -4 20 -6.8 81 81 N 3 6 30.42 1030 10 16.0934 0 0
8:35 pm 20:35 Cloudy 25 -4 20 -6.7 82 82 Calm 30.42 1030 10 16.0934 0 0
8:55 pm 20:55 Cloudy 25 -4 20 -6.7 82 82 Calm 30.42 1030 10 16.0934 0 0
9:15 pm 21:15 Cloudy 24 -4.2 20 -6.7 83 83 NNE 5 7 30.42 1030 10 16.0934 0 0
9:35 pm 21:35 Cloudy 24 -4.2 20 -6.7 83 83 Calm 30.42 1030 10 16.0934 0 0
9:55 pm 21:55 Cloudy 24 -4.2 20 -6.7 83 83 Calm 30.42 1030 10 16.0934 0 0
10:15 pm 22:15 Cloudy 24 -4.3 20 -6.8 83 83 NNE 5 7 30.42 1030 10 16.0934 0 0
10:35 pm 22:35 Cloudy 24 -4.5 19 -7 83 83 NE 3 6 30.42 1030 10 16.0934 0 0
10:55 pm 22:55 Cloudy 24 -4.4 20 -6.8 84 84 Calm 30.42 1030 10 16.0934 0 0
11:15 pm 23:15 Cloudy 24 -4.4 19 -7 82 82 Calm 30.42 1030 10 16.0934 0 0
11:35 pm 23:35 Cloudy 24 -4.5 19 -7 83 83 Calm 30.42 1030 10 16.0934 0 0
11:55 pm 23:55 Cloudy 24 -4.3 19 -7 82 82 Calm 30.42 1030 10 16.0934 0 0

Powered by AerisWeather